Погода в Озерках

Россия / Саратовская область     51°25′53″N   44°07′15″E
темп.,
°C
ветер,
м/с
пор.,
м/с
влажн.,
%
обл.,
%
осадки,
мм/ч
давл.,
гПа
погр.,
м
22 апреля, чт
чт2201:00+7ююв489112 0.1 1019162
04:00+6ююз369262 0.1 1020115
07:00+7ююз36907 0.0 1021141
10:00+12юз46605 0.0 1021678
13:00+15юз575120 0.2 10211791
16:00+14зюз4656100 0.8 10211013
19:00+13юз2367100 0.0 102284
22:00+10юз11719 0.0 102310
23 апреля, пт
пт2301:00+9ююв127411 0.0 102310
04:00+8вюв227769 0.0 102310
07:00+9в227589 0.0 102335
10:00+13вюв3463100 0.0 1022425
13:00+15юв3348100 0.8 10201588
16:00+11ю3375100 2.9 1020305
19:00+10ююз2286100 1.4 1019170
22:00+10ю258574 1.6 1018162
24 апреля, сб
сб2401:00+8ю238886 0.0 101769
04:00+8ююз359062 0.0 1015151
07:00+8ю3691100 0.0 1014209
10:00+11ю6777100 0.2 1012710
13:00+14юз91157100 0.9 10101884
16:00+7з7118799 1.3 1012689
19:00+8з4768100 0.1 10121141
22:00+6з3980100 0.6 1014766
25 апреля, вс
вс2501:00+4юз410814 0.1 1013220
04:00+4зюз7128897 1.2 1014737
07:00+2зюз7128561 0.0 1016776
10:00+6з8106651 0.0 10171272
13:00+9з794699 0.0 10182243
16:00+9з784497 0.0 10192248
19:00+9з474950 0.0 1019715
22:00+5юз346312 0.0 102060
26 апреля, пн
пн2601:00+4ююз2263100 0.0 102020
04:00+3ююз226490 0.0 102019
07:00+4ююв236717 0.0 102066
10:00+10ююв45468 0.0 10181461
13:00+12ю4539100 0.0 10162186
16:00+12ююз4538100 0.0 10142134
19:00+11ю575199 0.0 1013454
22:00+8ююз366399 0.0 1012125